Simultaneous Nadir Overpasses (SNOs) Predictions

Prediction of SNOs between AQUA and NOAA-19 Satellite Orbit:

Table of predicted SNOs for the next 14.0 days since TLE Epoch: 6/8/2013
Index Date (AQUA) Time (AQUA) Lat,Lon (AQUA) SZA (AQUA ) Date (NOAA-19) Time (NOAA-19) Lat,Lon (NOAA-19) SZA (NOAA-19 ) Distance(km) Time Diff (sec)
1 06/10/2013 04:22:31 -48.02, -50.82 152.45 06/10/2013 04:21:57 -48.03, -50.85 152.50 2.70 34
2 06/10/2013 05:11:28 46.10, 117.55 26.15 06/10/2013 05:12:31 46.03, 117.19 26.05 28.98 63
3 06/12/2013 09:06:43 -47.83,-121.81 152.77 06/12/2013 09:06:13 -47.81,-121.83 152.84 2.74 30
4 06/12/2013 09:55:42 46.09, 46.48 25.96 06/12/2013 09:56:49 46.01, 46.13 25.87 29.01 67
5 06/14/2013 13:50:56 -47.77, 167.15 152.97 06/14/2013 13:50:31 -47.78, 167.12 153.01 2.59 25
6 06/14/2013 14:39:57 46.09, -24.58 25.81 06/14/2013 14:41:08 46.01, -24.94 25.72 29.08 71
7 06/16/2013 18:35:02 -47.24, 96.29 153.48 06/16/2013 18:34:41 -47.23, 96.28 153.52 1.54 21
8 06/18/2013 23:19:18 -47.32, 25.20 153.51 06/18/2013 23:19:02 -47.33, 25.17 153.53 1.92 16




NCC Satellite Simultaneous Nadir Overpasses (SNOs) Prediction Service
